Regional Weather Roundup
Issued by NWS

Home | Current Version | Previous Version | Graphics & Text | Print | Product List | Glossary On
Versions: 1 2 3 4 5 6 7 8 9 10 11 12 13 14 15 16 17 18 19 20 21 22 23 24 25 26 27 28 29 30 31 32 33 34 35 36 37 38 39 40 41 42 43 44 45 46 47 48 49 50
000
ASUS43 KDMX 311307
RWRIA

WEATHER ROUNDUP FOR IOWA
NATIONAL WEATHER SERVICE DES MOINES IA
800 AM CDT MON AUG 31 2015

NOTE: "FAIR" INDICATES FEW OR NO CLOUDS BELOW 12,000 FEET WITH NO
SIGNIFICANT WEATHER AND/OR OBSTRUCTIONS TO VISIBILITY.

* - THESE STATIONS ARE NOT NWS STATIONS...THUS NOT UNDER NWS
QUALITY CONTROL.  THEY ALSO DO NOT REPORT WEATHER SUCH
AS PRECIPITATION OR FOG.

IAZ001>003-012>014-020>022-031>034-043>046-311400-
   NORTHWEST IOWA

CITY           SKY/WX    TMP DP  RH WIND       PRES   REMARKS
CARROLL *      FOG       63  63 100 S3        29.98R VSB 0
CHEROKEE *     MOSUNNY   64  64 100 S6        29.96R FOG
DENISON *      SUNNY     68  66  94 MISG      29.95S FOG
LE MARS *      CLOUDY    66  66 100 S8        29.94S FOG
ORANGE CITY *  CLOUDY    64  64 100 S6        29.94R FOG
SHELDON *      CLOUDY    64  63  94 SE5       29.93S FOG
SIOUX CITY     FOG       64  62  93 SE6       29.93S VSB 1/4
SPENCER        SUNNY     64  62  93 S8        29.96R FOG
STORM LAKE *   FOG       64  64 100 S5        29.98R VSB 0
$$

IAZ055>058-069>071-079>083-090>094-311400-
   SOUTHWEST IOWA

CITY           SKY/WX    TMP DP  RH WIND       PRES   REMARKS
ATLANTIC *     MOSUNNY   63  63 100 CALM      29.98S FOG
AUDUBON *      FOG       59  57  94 CALM      29.99S VSB 1/4
CLARINDA *     FOG       64  64 100 CALM      29.99S VSB 0
COUNCIL BLFS * FOG       66  66 100 SE7       29.97S VSB 0
CRESTON *      FOG       66  66 100 SE5       30.01S VSB 1
HARLAN  *      FOG       61 N/A N/A CALM      30.01R VSB 0
LAMONI         MOSUNNY   69  68  96 SE5       30.00R FOG
RED OAK *      FOG       64  64 100 CALM      29.98R VSB 1
SHENANDOAH *   FOG       66  66 100 CALM      29.98S VSB 0
$$

IAZ047>049-059>061-072>074-084-311400-
   CENTRAL IOWA

CITY           SKY/WX    TMP DP  RH WIND       PRES   REMARKS
AMES           CLOUDY    64  64 100 SE5       29.99S FOG
ANKENY *       SUNNY     66  66 100 CALM      29.99S FOG
CHARITON *     MOSUNNY   68  68 100 SE7       30.00S FOG
DES MOINES     SUNNY     69  65  86 SE9       29.98S FOG
GRINNELL*      SUNNY     64  63  94 SE5       30.02S FOG
KNOXVILLE *    SUNNY     66  66 100 SE7       29.99S FOG
MARSHALLTOWN   SUNNY     64  64 100 SE5       30.00R FOG
PELLA *          N/A     66  66 100 SE6       30.02R FOG
PERRY *        FOG       64  63  94 CALM      29.99S VSB<1/4
$$

IAZ004>006-015-016-023>025-035-036-311400-
   NORTH CENTRAL IOWA

CITY           SKY/WX    TMP DP  RH WIND       PRES   REMARKS
ALGONA *       FOG       66  66 100 S9        29.98R VSB 0
CLARION *      SUNNY     64  63  94 SE7       29.99S FOG
ESTHERVILLE    FOG       63  63 100 S9        29.95S VSB 1/4
FORT DODGE *   MOSUNNY   64  63  94 SE5       29.99S
MASON CITY     FOG       63  63 100 S8        30.01S VSB 1/4
FOREST CITY *  FOG       64  64 100 SE8       29.99S VSB 1/4
IOWA FALLS *   FOG       63  63 100 SE3       30.01S VSB 1/4
$$

IAZ007>011-017>019-026>030-037>042-050>054-066-311400-
   NORTHEAST IOWA

CITY           SKY/WX    TMP DP  RH WIND       PRES   REMARKS
CEDAR RAPIDS   SUNNY     63  63 100 SE5       30.03R FOG
CHARLES CITY * FOG       64  64 100 SE6       30.02S VSB 0
CLINTON *      SUNNY     63  61  94 E3        30.08R
DECORAH *      PTSUNNY   63  63 100 S5        30.02S FOG
DUBUQUE        FOG       64  64 100 S5        30.06S VSB 1
MONTICELLO *   MOSUNNY   61  61 100 CALM      30.04S FOG
OELWEIN *        N/A     63  63 100 SE5       30.04R FOG
WATERLOO       CLOUDY    64  64 100 SE5       30.01S FOG
$$

IAZ064-065-067-068-078-311400-
   EAST CENTRAL IOWA

CITY           SKY/WX    TMP DP  RH WIND       PRES   REMARKS
DAVENPORT      SUNNY     67  65  93 SE5       30.06R FOG
IOWA CITY      SUNNY     66  64  93 SE3       30.04S FOG
MT. PLEASANT * SUNNY     70  66  88 SE3       30.04R FOG
MUSCATINE *    SUNNY     63  63 100 CALM      30.04S FOG
QUAD CITIES    SUNNY     65  62  90 CALM      30.05R FOG
$$

IAZ062-063-075>077-085>089-095>099-311400-
   SOUTHEAST IOWA

CITY           SKY/WX    TMP DP  RH WIND       PRES   REMARKS
BURLINGTON     SUNNY     69  68  96 CALM      30.04R FOG
FAIRFIELD *    SUNNY     66  66 100 SE6       30.02F FOG
FORT MADISON * MOSUNNY   68  68 100 SE3       30.05S FOG
KEOKUK *       SUNNY     70  68  94 CALM      30.03S FOG
OSKALOOSA *      N/A     66  66 100 SE6       30.02S FOG
CENTERVILLE *  SUNNY     68  68 100 SE6       30.03S
OTTUMWA        SUNNY     67  67 100 SE7       30.01R FOG
WASHINGTON *     N/A    N/A N/A N/A MISG        N/A
$$

ABBREVIATIONS USED IN REMARKS
   TC - TEMPERATURES IN CELSIUS
  WCI - WIND CHILL INDEX
   HX - HEAT INDEX
  VSB - VISIBILITY
$$



USA.gov is the U.S. government's official web portal to all federal, state and local government web resources and services.